STARLINK-1263, 45405

Orbit data source: Space-Track

STARLINK-1263, 45405 is a payload satellite owned by SpaceX/Seattle (US) in LEO that was launched on Wed, 18 Mar 2020 UTC via an FALCON 9 launch vehicle from the Air Force Eastern Test Range (AFETR). Payload-class satellites include a variety of spacecraft equipped with specific instruments for various scientific and technological missions. These include communications satellites like Starlink; space stations such as the ISS; scientific satellites like the Hubble; Earth observation satellites from companies like Planet Labs, Umbra, and HawkEye 360; GPS; miniature CubeSats for education and research; and military/defense satellites.

Loading next visibility...
Identifier
45405, 2020-019AX
Orbit
LEO
Country
Flag of USUS
Related business
Manufacturer
SpaceX/Seattle
Mission
Operational Commercial Communications
Bus & Motor
STARLINK, Unknown motor
Mass
260 kg wet, ~248 kg dry
Launch date (UTC)
2020-03-18 (6 years ago)
Launch vehicle
FALCON 9
Launch site
Air Force Eastern Test Range (AFETR)
Object type
Payload
Rocket body
Debris
Shape & HBR
Box + 1 Pan, 10.1 m
Radar Cross Section
13.562 m², Large (>1 m²)

Expand to show TLE details & history
Last TLE update: 9 hours ago

TLE from 9 hours ago
0 STARLINK-1263
1 45405U 20019AX  26062.48123977  .00000297  00000-0  22156-4 0  9995
2 45405  53.1604 158.1093 0001246  94.3618 265.7525 15.30193067329023
Epoch: 2026-03-03T11:32Z
TLE epoch observation values (Epoch: 2026-03-03T11:32:59.116Z)
Latitude
-0.00001°
Longitude
-176.39671°
Altitude
476.199 km
Speed
7.629 km/s
True Right ascension
10h 32m 26s
True Declination
0° 00' 00"
Sunlit
Object was in full shadow at epoch
Visualization orbit readout
Latitude
Unknown
Longitude
Unknown
Altitude
Unknown
Speed
Unknown
Apparent Right ascension
Unknown
Apparent Declination
Unknown
Sunlit
N/A
Visualization observer readout
Local Sidereal Time
23:48:59
Azimuth
Unknown
Elevation
Unknown
Doppler factor
Unknown
Orbital elements
Apogee altitude
476.346 km
Perigee altitude
474.638 km
Semi-major axis
6,853.629 km
Eccentricity
0.00012
Inclination
53.1604°
RAAN
158.1093°
Arg. of periapsis
94.3618°
True anomaly
265.73826°
Mean anomaly
265.7525°
Eccentric anomaly
265.74538°
Mean motion
3.82527 °/min
Orbital period
94.11 mins
BSTAR
0.000022156
Loading maneuver chart data...
Computing Atmospheric mass density...
Loading historical data...
Loading historical data...
Loading historical data...
Loading historical data...
Loading historical data...
Loading historical data...
Loading historical data...

Documentation

Showing up to 5 results
|